Temperature
11 11 11 11 10 10 10 10 10 9 9 9 9 9 9 9 9 9 9 9 9 9 8 8 8 8 8 8 8 7 7 7 7 7 7 7 7 6 6 6 6 6 6
11 11 11 10 10 10 10 10 9 9 9 9 9 9 9 9 9 9 9 9 9 9 9 9 8 8 8 7 7 7 7 7 7 7 6 6 6 6 6 6 6 5 5
11 11 11 10 10 10 10 10 9 9 9 9 9 9 9 9 9 9 9 9 9 9 9 9 9 8 8 7 7 7 7 7 7 6 6 6 6 6 5 5 5 5 5
11 11 11 10 10 10 10 10 10 9 9 9 9 9 9 9 9 9 9 9 9 9 9 9 9 9 8 8 8 7 7 7 7 6 6 6 6 5 5 5 5 5 5
11 11 11 10 10 10 10 10 10 9 9 9 9 9 9 9 9 9 9 9 9 9 9 9 9 9 8 8 8 8 7 7 7 6 6 6 5 5 5 5 5 4 4
11 11 11 11 10 10 10 10 10 9 9 9 9 9 9 9 9 9 9 9 9 9 9 9 9 9 9 8 8 8 7 7 7 6 6 5 5 5 5 4 4 4 4
11 11 11 11 10 10 10 10 10 10 9 9 9 9 9 9 9 9 9 9 9 9 9 9 9 9 9 8 8 8 7 7 7 6 6 5 5 5 4 4 4 4 4
11 11 11 11 11 11 10 10 10 10 9 9 9 9 9 9 9 9 9 9 9 9 9 9 8 8 8 8 8 8 7 7 6 6 6 5 5 4 4 4 3 3 3
12 11 11 11 11 11 11 10 10 10 10 9 9 9 9 9 9 9 9 9 9 9 9 9 8 8 8 8 8 7 7 7 6 6 5 5 5 4 4 3 3 3 3
12 11 11 11 11 11 10 10 10 10 10 10 9 9 9 9 9 9 9 9 9 9 9 8 8 8 8 8 7 7 7 6 6 5 5 5 4 4 4 3 3 3 3
12 11 11 11 11 11 10 10 10 10 10 10 10 9 9 9 9 9 9 9 9 9 8 8 8 8 8 7 7 7 6 6 5 5 5 5 4 4 3 3 3 2 2
12 11 11 11 11 10 10 10 10 10 10 10 9 9 9 9 9 9 9 9 9 9 8 8 8 8 8 7 7 6 6 5 5 5 4 4 4 4 3 3 3 2 2
12 12 11 11 11 10 10 10 10 10 10 9 9 9 9 9 9 9 9 8 8 8 8 8 8 8 7 7 7 6 6 5 5 4 4 4 3 3 3 3 2 2 2
14 14 12 11 11 10 10 10 10 10 10 9 9 9 9 9 9 9 9 8 8 8 8 8 8 7 7 7 6 6 5 5 4 4 3 3 3 2 2 2 2 1 1
13 13 12 12 11 10 10 10 10 10 9 9 9 9 9 9 9 9 8 8 8 7 7 7 7 7 6 6 6 5 5 4 4 3 3 2 2 2 1 1 1 1 0
13 12 12 11 11 10 10 10 10 9 9 9 9 9 9 9 9 8 8 8 8 7 7 7 7 6 6 5 5 4 4 3 3 3 2 2 1 1 1 0 0 -0 -1
12 12 12 11 11 10 10 10 10 9 9 9 9 9 9 9 8 8 8 8 7 7 6 6 6 5 5 5 4 4 3 3 2 2 1 1 0 0 -0 -1 -1 -1 -2
12 12 11 11 10 10 10 10 10 9 9 9 9 9 9 8 8 8 8 7 7 7 6 6 6 5 4 4 3 3 3 2 2 1 0 0 -0 -1 -1 -1 -2 -2 -3
11 11 11 11 10 10 10 10 10 10 9 9 9 9 8 8 8 8 7 7 7 6 6 5 5 4 4 3 2 2 2 1 1 0 -0 -1 -1 -2 -2 -2 -3 -3 -3
11 11 11 11 10 10 10 10 10 9 9 9 9 8 8 8 8 7 7 7 6 6 5 5 4 3 3 2 2 1 1 1 0 -0 -1 -2 -2 -2 -3 -3 -4 -4 -4
11 11 10 10 10 10 10 10 9 9 9 9 8 8 8 8 7 7 7 6 6 5 5 4 3 2 2 1 1 0 -0 -1 -1 -1 -2 -2 -3 -3 -3 -4 -4 -4 -5
10 10 10 10 10 10 10 10 9 9 9 8 8 8 8 7 7 7 6 6 5 4 4 3 2 2 1 1 -0 -1 -1 -2 -2 -2 -3 -3 -3 -4 -4 -4 -5 -5 -5
10 10 10 10 10 10 9 9 9 9 9 8 8 7 7 7 7 6 6 5 4 4 3 2 1 1 0 -0 -1 -1 -2 -2 -3 -3 -4 -4 -4 -4 -5 -5 -5 -6 -6
10 10 10 10 9 9 9 9 9 8 8 8 7 7 7 6 6 5 5 4 4 3 2 2 1 0 -1 -1 -2 -2 -3 -3 -3 -4 -4 -5 -5 -5 -5 -5 -6 -6 -7
10 10 9 9 9 9 9 8 8 8 7 7 7 7 6 6 5 5 4 4 3 2 2 1 0 -1 -1 -2 -2 -3 -3 -4 -4 -4 -5 -6 -6 -6 -6 -6 -6 -7 -7
9 9 9 9 9 9 8 8 7 7 7 7 6 6 5 5 4 4 3 3 2 2 1 0 -1 -1 -2 -2 -3 -4 -4 -5 -5 -6 -6 -7 -7 -8 -8 -7 -7 -7 -7
Wind_Speed
6 8 8 10 10 10 9 6 5 5 5 5 4 4 3 4 9 12 11 10 9 8 8 8 8 9 9 9 10 10 10 11 11 11 12 12 13 13 13 13 14 14 14
9 7 6 7 8 10 9 7 5 5 4 4 3 3 4 5 8 12 12 10 9 8 7 7 7 7 7 8 8 8 9 9 10 10 11 11 12 12 12 13 13 14 14
13 9 5 5 7 11 10 6 5 5 3 3 2 3 4 5 5 8 11 11 9 8 6 6 5 6 6 6 7 7 7 8 8 9 10 10 11 11 12 12 13 13 13
15 10 6 6 10 10 7 3 4 4 3 3 3 2 3 3 4 5 7 9 9 8 7 5 4 4 4 5 5 6 6 7 7 8 9 10 10 11 11 12 12 13 13
15 10 6 7 11 7 4 4 4 4 4 3 3 2 2 2 3 3 4 6 7 8 7 6 4 3 2 3 3 4 5 5 6 7 8 9 10 11 11 12 12 12 13
16 12 7 8 10 6 5 5 5 4 4 4 3 2 1 2 2 2 3 5 7 6 7 6 6 4 2 0 1 3 4 4 6 7 8 9 10 11 12 12 12 13 13
15 11 7 7 7 7 7 7 5 5 4 4 3 1 1 1 2 2 3 3 5 6 6 6 6 6 5 3 1 2 4 5 6 7 8 9 10 11 12 12 13 14 14
15 12 9 8 8 7 8 8 7 5 4 4 4 3 1 2 2 2 2 2 3 5 5 6 6 6 5 5 4 2 3 5 6 8 9 10 11 12 12 13 14 14 15
15 13 11 9 9 8 8 8 8 8 5 4 4 4 3 3 2 2 3 3 4 3 4 6 7 7 7 7 6 5 3 4 7 8 10 11 12 13 14 14 15 15 16
13 14 13 11 10 8 9 9 8 6 7 5 4 3 2 3 3 1 2 3 5 5 5 5 7 8 8 8 7 6 4 5 7 9 10 12 13 14 15 16 16 17 17
12 14 14 11 11 9 10 10 9 8 6 6 5 3 2 1 2 3 3 3 3 4 4 4 6 8 9 9 8 7 5 5 7 9 11 12 14 15 16 17 17 18 18
11 14 13 12 11 10 10 10 10 10 8 7 5 5 4 3 4 4 3 3 4 4 4 3 4 7 9 9 8 8 7 7 8 10 11 12 14 16 17 18 18 19 19
11 16 14 13 12 10 10 9 10 10 10 9 7 5 5 5 4 4 4 3 2 2 3 3 4 7 8 8 8 8 8 8 9 11 12 13 15 16 17 18 19 20 20
13 15 15 13 13 12 11 10 9 9 9 9 9 7 5 5 4 4 4 3 2 2 2 5 3 5 7 8 8 8 8 9 11 12 13 14 15 17 18 19 20 20 21
12 15 16 15 13 13 12 11 9 9 9 9 9 8 6 5 4 4 4 4 5 3 4 4 3 3 6 7 7 7 7 9 11 12 14 15 16 17 18 19 20 20 21
13 15 15 15 14 13 12 11 9 9 9 8 7 8 7 5 5 4 4 3 4 5 4 3 3 2 3 4 6 7 8 10 12 13 15 16 17 18 18 19 20 21 22
14 15 15 15 14 14 13 12 11 10 11 9 8 9 8 6 5 4 4 4 4 4 4 3 1 0 1 2 3 5 7 9 10 13 15 16 17 18 19 20 21 21 22
14 14 15 15 14 14 13 13 13 12 11 11 10 9 8 6 6 5 5 5 4 4 4 4 2 0 2 2 1 2 5 7 9 12 15 16 17 18 19 20 21 21 21
13 13 14 14 14 13 13 12 12 12 11 10 10 10 9 8 7 5 5 5 4 3 2 2 2 1 1 1 1 2 4 5 9 12 14 15 17 18 19 20 20 20 20
13 13 13 13 12 12 12 11 11 10 10 9 9 9 8 9 8 7 5 5 3 3 2 1 1 1 2 1 1 3 4 4 5 9 11 13 15 17 18 20 20 20 19
12 12 12 11 11 10 10 11 10 10 9 8 7 7 7 7 7 6 5 5 4 3 2 2 2 2 2 2 2 2 4 4 5 4 4 6 9 9 13 16 17 18 19
12 12 12 12 11 8 12 15 12 9 9 9 8 7 6 6 6 6 6 6 6 5 4 3 2 2 3 2 2 2 3 4 5 3 4 6 5 6 8 11 16 19 19
12 11 11 11 10 10 15 15 14 10 9 8 8 7 5 5 6 4 5 5 4 4 4 4 3 3 3 2 2 3 3 4 5 5 4 5 4 5 8 14 18 19 19
11 11 11 11 10 11 15 16 15 9 8 7 7 7 7 6 5 5 4 3 2 1 1 1 2 2 1 1 1 2 3 4 4 4 3 5 4 5 8 11 15 17 18
10 10 10 11 11 11 14 16 14 9 8 7 6 7 7 6 7 7 5 4 2 0 1 1 2 2 3 4 4 2 3 3 5 4 2 3 4 6 5 5 10 15 18
11 11 10 10 11 11 14 15 14 8 8 7 6 6 8 8 8 7 5 5 3 1 1 2 2 3 3 3 4 2 1 3 4 4 2 3 4 5 5 4 4 10 13
Wind_Direction
151 155 163 162 168 165 162 180 177 153 143 130 119 115 114 96 103 111 105 91 80 73 70 66 60 56 58 54 49 45 41 39 35 33 30 25 22 21 19 17 14 13 11
160 161 159 159 163 157 165 175 168 142 129 120 117 106 96 92 104 121 123 108 95 86 78 68 61 56 55 52 49 44 38 34 31 28 25 22 18 16 14 12 10 8 6
165 167 155 155 157 161 165 169 153 131 121 120 116 92 78 78 91 118 131 132 120 107 94 78 66 56 51 49 47 42 34 30 28 24 20 15 11 9 6 5 3 1 359
169 166 153 156 161 161 159 149 138 130 130 133 123 105 96 86 86 104 119 133 137 131 120 104 85 64 52 41 37 34 30 25 19 16 11 6 2 1 359 357 355 353 352
170 164 156 159 160 155 153 155 146 142 139 130 122 113 108 121 120 118 124 124 127 132 138 137 128 107 64 32 23 18 15 13 8 5 360 355 353 352 349 348 347 346 345
173 167 159 164 161 154 160 158 153 145 143 144 128 114 121 140 143 154 154 143 148 154 160 162 164 160 163 110 360 349 349 353 353 352 348 345 344 342 341 340 340 338 337
176 170 165 167 162 162 167 164 153 151 150 136 113 109 287 220 192 180 167 163 167 170 174 182 180 179 187 199 235 309 323 331 336 338 338 336 333 333 333 333 332 331 331
179 177 169 171 166 164 170 170 154 154 162 158 150 145 188 291 273 207 183 183 179 175 189 199 196 195 196 195 200 236 293 314 322 327 328 327 326 324 324 324 324 324 324
183 179 176 171 173 171 176 175 166 161 167 188 183 161 164 204 213 234 217 199 198 194 201 205 202 206 208 197 196 211 246 294 311 317 320 321 321 320 319 319 319 319 319
186 182 181 179 178 177 178 179 173 167 161 178 205 211 184 156 151 206 260 230 214 211 209 200 199 206 211 206 203 207 228 275 301 310 315 316 316 317 317 316 316 316 315
189 186 185 184 183 183 182 181 175 173 171 171 174 177 204 218 188 166 223 245 245 235 216 201 196 205 210 208 202 206 226 264 292 303 308 311 312 314 315 315 315 314 313
191 190 188 189 187 185 184 183 180 178 180 179 177 171 167 175 201 190 204 217 227 236 220 208 200 204 206 206 209 211 226 256 282 294 300 304 308 310 311 311 311 311 311
192 194 191 191 191 187 183 180 180 182 182 183 185 186 186 191 180 176 183 210 223 233 213 225 212 204 201 205 213 213 233 258 276 288 294 299 303 306 307 308 308 309 309
191 189 191 192 191 187 184 181 181 183 185 187 190 186 189 197 188 179 175 173 207 252 228 238 228 202 201 205 211 213 237 260 274 285 292 297 301 303 304 305 306 307 307
184 185 189 191 191 188 186 181 185 185 183 188 191 192 190 191 186 187 178 168 173 211 244 237 221 215 199 200 210 216 241 266 277 285 292 297 300 301 302 304 305 306 305
180 183 186 190 190 188 185 183 181 179 181 187 186 189 192 189 183 181 183 183 178 185 225 237 218 214 188 197 222 230 251 275 281 287 293 297 299 301 303 304 306 306 305
178 182 184 187 188 187 183 183 184 180 184 187 186 189 193 179 175 183 182 186 191 181 218 254 244 158 161 217 243 246 263 273 281 289 294 298 300 302 303 305 306 307 307
178 179 180 183 185 185 184 185 185 184 187 189 188 185 187 178 181 185 185 192 199 195 198 233 250 251 232 232 239 261 276 282 283 291 296 299 301 303 305 307 307 307 308
174 175 176 180 181 182 182 183 183 184 187 187 183 183 183 177 188 188 186 195 199 198 185 201 239 253 273 277 279 289 294 290 291 294 297 300 302 305 308 309 309 309 310
172 172 173 175 176 177 178 177 177 177 178 178 176 177 177 181 188 185 185 188 180 184 186 202 251 283 288 307 318 290 297 291 296 298 299 304 307 310 311 310 311 312 312
166 165 165 167 168 171 174 170 169 169 170 167 164 163 167 170 173 173 172 173 169 174 176 205 243 267 276 310 284 278 290 298 296 288 306 307 309 305 306 310 311 310 312
157 158 161 162 162 165 163 162 162 162 161 162 162 157 155 154 160 167 169 175 174 176 189 198 223 243 261 267 281 301 304 318 306 301 312 302 301 297 298 302 308 313 315
154 155 157 156 157 158 156 155 154 156 155 159 157 155 154 155 154 158 160 162 172 175 183 189 207 232 249 258 277 287 292 292 283 293 314 295 294 296 303 307 312 315 318
154 154 152 152 150 154 153 151 147 144 139 143 146 149 148 148 151 148 143 144 151 159 174 161 189 231 268 282 262 275 283 298 292 300 314 292 301 304 309 304 308 317 324
145 147 147 147 146 150 150 147 142 140 136 135 134 136 141 142 144 141 142 147 138 89 57 63 25 357 342 336 344 5 347 336 315 304 300 297 306 314 299 288 308 325 327
139 138 136 139 142 144 146 144 141 141 139 136 129 130 132 138 144 145 145 146 155 175 109 68 30 3 1 350 347 1 327 316 313 302 327 333 307 326 313 296 312 318 317
Height
1523 1526 1528 1531 1533 1535 1537 1539 1541 1543 1544 1545 1546 1547 1548 1549 1548 1548 1548 1548 1548 1548 1548 1547 1547 1547 1546 1545 1544 1543 1542 1541 1539 1538 1537 1535 1534 1532 1531 1529 1528 1527 1525
1522 1525 1527 1530 1532 1534 1536 1538 1540 1542 1544 1545 1546 1547 1548 1548 1548 1548 1547 1548 1547 1547 1547 1547 1547 1546 1546 1545 1544 1543 1542 1540 1539 1538 1536 1535 1534 1532 1530 1529 1527 1526 1524
1520 1523 1526 1528 1531 1533 1536 1538 1540 1541 1543 1544 1545 1546 1547 1547 1548 1548 1547 1547 1547 1547 1547 1547 1546 1546 1545 1544 1543 1542 1541 1540 1539 1537 1536 1534 1533 1531 1530 1528 1527 1525 1523
1519 1521 1524 1527 1529 1532 1534 1536 1538 1540 1542 1543 1544 1545 1546 1546 1547 1547 1547 1547 1546 1546 1547 1546 1546 1545 1545 1544 1543 1542 1541 1539 1538 1537 1535 1534 1532 1531 1529 1527 1526 1524 1522
1516 1519 1522 1525 1527 1530 1532 1535 1537 1538 1540 1542 1543 1544 1545 1545 1546 1546 1546 1546 1546 1546 1546 1545 1545 1544 1544 1543 1542 1541 1540 1539 1537 1536 1534 1533 1531 1529 1528 1526 1524 1522 1520
1513 1516 1519 1522 1525 1527 1530 1532 1535 1537 1539 1540 1541 1542 1543 1544 1544 1545 1545 1545 1545 1545 1545 1544 1544 1543 1543 1542 1541 1540 1539 1537 1536 1534 1533 1531 1529 1528 1526 1524 1522 1520 1518
1510 1513 1516 1519 1522 1524 1527 1530 1532 1534 1536 1538 1540 1541 1542 1542 1543 1543 1543 1543 1544 1543 1543 1543 1542 1542 1541 1540 1539 1538 1537 1536 1534 1533 1531 1529 1527 1526 1524 1522 1520 1518 1516
1506 1509 1512 1515 1518 1521 1524 1527 1529 1531 1534 1536 1537 1539 1540 1541 1540 1541 1541 1542 1542 1542 1542 1541 1541 1540 1539 1538 1537 1536 1535 1534 1532 1530 1529 1527 1525 1523 1521 1519 1517 1515 1513
1501 1505 1508 1512 1515 1518 1520 1523 1526 1528 1530 1533 1535 1537 1538 1538 1538 1539 1539 1539 1540 1539 1539 1539 1538 1538 1537 1536 1535 1534 1533 1531 1530 1528 1526 1524 1522 1520 1518 1516 1514 1512 1509
1496 1500 1504 1507 1510 1514 1517 1519 1522 1525 1527 1529 1532 1534 1535 1536 1536 1536 1537 1537 1537 1537 1537 1536 1536 1535 1534 1533 1532 1531 1530 1528 1527 1525 1523 1521 1519 1517 1515 1512 1510 1508 1505
1491 1495 1498 1502 1506 1509 1512 1516 1518 1521 1523 1526 1528 1530 1532 1533 1534 1534 1534 1534 1534 1534 1534 1534 1533 1532 1532 1530 1529 1528 1527 1525 1523 1522 1519 1517 1515 1513 1510 1508 1506 1503 1500
1484 1489 1493 1497 1500 1504 1507 1511 1514 1517 1520 1522 1524 1526 1528 1529 1530 1531 1531 1531 1531 1531 1531 1531 1530 1529 1528 1527 1526 1525 1523 1522 1520 1518 1516 1513 1511 1508 1506 1503 1501 1498 1495
1477 1481 1486 1490 1494 1498 1503 1507 1510 1512 1515 1518 1520 1522 1524 1526 1527 1528 1528 1528 1528 1528 1527 1527 1527 1526 1525 1524 1522 1521 1520 1518 1516 1514 1511 1509 1506 1503 1501 1498 1495 1492 1490
1470 1475 1480 1484 1489 1493 1498 1502 1505 1508 1511 1514 1516 1518 1520 1521 1523 1524 1525 1525 1524 1524 1523 1523 1523 1522 1521 1520 1518 1517 1515 1514 1512 1509 1507 1504 1501 1498 1495 1492 1489 1486 1483
1465 1470 1474 1479 1483 1488 1492 1496 1500 1503 1506 1509 1512 1514 1515 1517 1518 1519 1520 1521 1522 1520 1519 1519 1518 1518 1517 1515 1514 1512 1511 1509 1507 1504 1502 1499 1496 1493 1490 1487 1483 1480 1477
1460 1464 1469 1473 1478 1482 1487 1491 1494 1498 1501 1504 1507 1509 1511 1512 1514 1515 1516 1516 1517 1516 1515 1514 1514 1513 1512 1511 1509 1508 1506 1504 1501 1499 1497 1494 1491 1488 1484 1481 1477 1474 1471
1455 1459 1463 1468 1472 1477 1481 1485 1489 1493 1496 1499 1502 1504 1506 1507 1509 1510 1511 1511 1511 1511 1510 1510 1510 1508 1507 1506 1504 1503 1501 1498 1496 1493 1491 1488 1485 1482 1478 1475 1471 1468 1464
1450 1454 1458 1463 1467 1472 1476 1480 1484 1487 1490 1493 1496 1499 1501 1503 1504 1505 1506 1506 1506 1506 1506 1504 1504 1503 1502 1501 1499 1497 1495 1493 1490 1488 1485 1482 1479 1476 1473 1469 1465 1462 1458
1445 1449 1454 1458 1462 1467 1471 1475 1479 1482 1485 1488 1491 1493 1496 1498 1499 1500 1501 1501 1501 1501 1501 1500 1498 1497 1496 1495 1493 1492 1490 1488 1485 1482 1479 1476 1473 1470 1467 1463 1459 1456 1452
1440 1444 1449 1453 1458 1462 1466 1470 1474 1477 1481 1484 1487 1489 1491 1493 1494 1495 1496 1496 1496 1496 1495 1494 1493 1492 1491 1489 1488 1486 1483 1481 1479 1476 1474 1471 1467 1464 1461 1457 1454 1450 1447
1435 1440 1445 1449 1454 1458 1462 1466 1470 1473 1477 1479 1482 1484 1487 1488 1490 1491 1491 1491 1491 1491 1490 1489 1488 1487 1486 1484 1483 1480 1478 1475 1472 1470 1467 1464 1461 1458 1455 1451 1448 1445 1441
1431 1436 1441 1445 1450 1454 1458 1463 1466 1469 1472 1475 1478 1480 1482 1484 1485 1486 1486 1487 1487 1486 1485 1485 1484 1482 1481 1480 1478 1476 1473 1470 1466 1465 1461 1458 1456 1452 1449 1445 1442 1439 1436
1427 1432 1437 1441 1446 1450 1455 1459 1462 1466 1468 1471 1473 1476 1478 1479 1481 1482 1482 1482 1482 1481 1481 1481 1480 1478 1477 1476 1474 1472 1469 1466 1463 1459 1455 1451 1449 1446 1443 1440 1437 1434 1431
1423 1428 1433 1438 1442 1447 1451 1455 1459 1462 1465 1467 1470 1472 1474 1475 1476 1477 1477 1477 1477 1477 1477 1476 1476 1475 1473 1472 1470 1468 1465 1461 1458 1455 1452 1447 1443 1440 1437 1435 1432 1429 1426
1419 1425 1430 1435 1439 1444 1448 1452 1455 1459 1461 1464 1467 1468 1470 1472 1472 1473 1473 1473 1474 1473 1473 1472 1472 1471 1469 1467 1466 1463 1460 1456 1452 1450 1447 1444 1439 1435 1431 1429 1427 1424 1421
1417 1422 1427 1432 1437 1441 1445 1449 1452 1455 1458 1461 1463 1465 1467 1468 1469 1469 1470 1470 1469 1469 1469 1468 1467 1466 1465 1463 1461 1459 1456 1453 1449 1446 1443 1440 1436 1432 1426 1424 1422 1420 1417